contact:dominique.lefevre@mio.osupytheas.fr, maurice.libes@osupytheas.fr, didier.mallarino@osupytheas.fr
Project:EMSO http://www.emso-fr.org/EMSO-France
Depth: 2436.0 m
Title:EMSO Ligure Ouest : Data MII capteur MICROCAT
DateTime_Computer,Latitude,Longitude,Temperature,Conductivity,Pressure,DateTime_Instrument
DateTime_Computer,Latitude,Longitude,degC,S m-1,dbar,DateTime_Instrument
2022-07-22T00:01:59Z,42.805,6.029,13.3006,4.60040,2470.646,2022-7-22T02:03:46Z
2022-07-22T00:05:02Z,42.805,6.029,13.3007,4.60038,2470.646,2022-7-22T02:06:49Z
2022-07-22T00:08:05Z,42.805,6.029,13.3004,4.60039,2470.661,2022-7-22T02:09:52Z
2022-07-22T00:11:08Z,42.805,6.029,13.3005,4.60039,2470.646,2022-7-22T02:12:55Z
2022-07-22T00:14:11Z,42.805,6.029,13.3004,4.60038,2470.624,2022-7-22T02:15:58Z
2022-07-22T00:17:14Z,42.805,6.029,13.3005,4.60041,2470.637,2022-7-22T02:19:01Z
2022-07-22T00:20:17Z,42.805,6.029,13.3007,4.60039,2470.6,2022-7-22T02:22:04Z
2022-07-22T00:23:21Z,42.805,6.029,13.3005,4.60038,2470.661,2022-7-22T02:25:07Z
2022-07-22T00:26:24Z,42.805,6.029,13.3004,4.60038,2470.624,2022-7-22T02:28:11Z
2022-07-22T00:29:27Z,42.805,6.029,13.3006,4.60038,2470.6,2022-7-22T02:31:14Z
2022-07-22T00:32:30Z,42.805,6.029,13.3008,4.60039,2470.614,2022-7-22T02:34:17Z
2022-07-22T00:35:33Z,42.805,6.029,13.3005,4.60040,2470.637,2022-7-22T02:37:20Z
2022-07-22T00:38:36Z,42.805,6.029,13.3006,4.60039,2470.661,2022-7-22T02:40:23Z
2022-07-22T00:41:39Z,42.805,6.029,13.3004,4.60038,2470.661,2022-7-22T02:43:26Z
2022-07-22T00:44:42Z,42.805,6.029,13.3005,4.60038,2470.624,2022-7-22T02:46:29Z
2022-07-22T00:47:46Z,42.805,6.029,13.3001,4.60039,2470.614,2022-7-22T02:49:32Z
2022-07-22T00:50:49Z,42.805,6.029,13.3004,4.60039,2470.61,2022-7-22T02:52:36Z
2022-07-22T00:53:52Z,42.805,6.029,13.3006,4.60039,2470.661,2022-7-22T02:55:39Z
2022-07-22T00:56:55Z,42.805,6.029,13.3004,4.60038,2470.624,2022-7-22T02:58:42Z
2022-07-22T00:59:58Z,42.805,6.029,13.3004,4.60039,2470.661,2022-7-22T03:01:45Z
2022-07-22T01:03:01Z,42.805,6.029,13.3009,4.60040,2470.624,2022-7-22T03:04:48Z
2022-07-22T01:06:04Z,42.805,6.029,13.3004,4.60038,2470.661,2022-7-22T03:07:51Z
2022-07-22T01:09:07Z,42.805,6.029,13.3006,4.60039,2470.646,2022-7-22T03:10:54Z
2022-07-22T01:12:11Z,42.805,6.029,13.3007,4.60038,2470.646,2022-7-22T03:13:57Z
2022-07-22T01:15:14Z,42.805,6.029,13.3004,4.60037,2470.624,2022-7-22T03:17:01Z
2022-07-22T01:18:17Z,42.805,6.029,13.3007,4.60037,2470.646,2022-7-22T03:20:04Z
2022-07-22T01:21:20Z,42.805,6.029,13.3004,4.60038,2470.646,2022-7-22T03:23:07Z
2022-07-22T01:24:23Z,42.805,6.029,13.3009,4.60038,2470.633,2022-7-22T03:26:10Z
2022-07-22T01:27:26Z,42.805,6.029,13.3005,4.60039,2470.646,2022-7-22T03:29:13Z
2022-07-22T01:30:29Z,42.805,6.029,13.3004,4.60039,2470.637,2022-7-22T03:32:16Z
2022-07-22T01:33:32Z,42.805,6.029,13.3004,4.60040,2470.67,2022-7-22T03:35:19Z
2022-07-22T01:36:35Z,42.805,6.029,13.3006,4.60041,2470.646,2022-7-22T03:38:22Z
2022-07-22T01:39:39Z,42.805,6.029,13.3001,4.60039,2470.67,2022-7-22T03:41:26Z
2022-07-22T01:42:42Z,42.805,6.029,13.3006,4.60040,2470.661,2022-7-22T03:44:29Z
2022-07-22T01:45:45Z,42.805,6.029,13.3003,4.60038,2470.646,2022-7-22T03:47:32Z
2022-07-22T01:48:48Z,42.805,6.029,13.3002,4.60039,2470.67,2022-7-22T03:50:35Z
2022-07-22T01:51:51Z,42.805,6.029,13.3006,4.60041,2470.646,2022-7-22T03:53:38Z
2022-07-22T01:54:54Z,42.805,6.029,13.3004,4.60038,2470.693,2022-7-22T03:56:41Z
2022-07-22T01:57:57Z,42.805,6.029,13.3002,4.60038,2470.684,2022-7-22T03:59:44Z
2022-07-22T02:01:00Z,42.805,6.029,13.3007,4.60038,2470.646,2022-7-22T04:02:47Z
2022-07-22T02:04:04Z,42.805,6.029,13.3004,4.60039,2470.661,2022-7-22T04:05:51Z
2022-07-22T02:07:07Z,42.805,6.029,13.3002,4.60038,2470.646,2022-7-22T04:08:54Z
2022-07-22T02:10:10Z,42.805,6.029,13.3004,4.60039,2470.624,2022-7-22T04:11:57Z
2022-07-22T02:13:13Z,42.805,6.029,13.3005,4.60039,2470.661,2022-7-22T04:15:00Z
2022-07-22T02:16:16Z,42.805,6.029,13.3008,4.60038,2470.646,2022-7-22T04:18:03Z
2022-07-22T02:19:19Z,42.805,6.029,13.3006,4.60037,2470.684,2022-7-22T04:21:06Z
2022-07-22T02:22:22Z,42.805,6.029,13.3004,4.60039,2470.637,2022-7-22T04:24:09Z
2022-07-22T02:25:25Z,42.805,6.029,13.3005,4.60042,2470.646,2022-7-22T04:27:12Z
2022-07-22T02:28:29Z,42.805,6.029,13.3004,4.60039,2470.661,2022-7-22T04:30:15Z
2022-07-22T02:31:32Z,42.805,6.029,13.3002,4.60041,2470.646,2022-7-22T04:33:19Z
2022-07-22T02:34:35Z,42.805,6.029,13.3009,4.60038,2470.684,2022-7-22T04:36:22Z
2022-07-22T02:37:38Z,42.805,6.029,13.3003,4.60042,2470.693,2022-7-22T04:39:25Z
2022-07-22T02:40:41Z,42.805,6.029,13.3006,4.60038,2470.624,2022-7-22T04:42:28Z
2022-07-22T02:43:44Z,42.805,6.029,13.3004,4.60039,2470.646,2022-7-22T04:45:31Z
2022-07-22T02:46:47Z,42.805,6.029,13.3004,4.60037,2470.67,2022-7-22T04:48:34Z
2022-07-22T02:49:50Z,42.805,6.029,13.3004,4.60039,2470.646,2022-7-22T04:51:37Z
2022-07-22T02:52:54Z,42.805,6.029,13.3002,4.60039,2470.646,2022-7-22T04:54:40Z
2022-07-22T02:55:57Z,42.805,6.029,13.3006,4.60039,2470.67,2022-7-22T04:57:44Z
2022-07-22T02:59:00Z,42.805,6.029,13.3004,4.60040,2470.684,2022-7-22T05:00:47Z
2022-07-22T03:02:03Z,42.805,6.029,13.3005,4.60040,2470.646,2022-7-22T05:03:50Z
2022-07-22T03:05:06Z,42.805,6.029,13.3002,4.60041,2470.67,2022-7-22T05:06:53Z
2022-07-22T03:08:09Z,42.805,6.029,13.3006,4.60039,2470.646,2022-7-22T05:09:56Z
2022-07-22T03:11:12Z,42.805,6.029,13.3008,4.60039,2470.624,2022-7-22T05:12:59Z
2022-07-22T03:14:15Z,42.805,6.029,13.3005,4.60039,2470.624,2022-7-22T05:16:02Z
2022-07-22T03:17:18Z,42.805,6.029,13.3007,4.60038,2470.656,2022-7-22T05:19:05Z
2022-07-22T03:20:22Z,42.805,6.029,13.3009,4.60039,2470.633,2022-7-22T05:22:08Z
2022-07-22T03:23:25Z,42.805,6.029,13.3004,4.60039,2470.6,2022-7-22T05:25:12Z
2022-07-22T03:26:28Z,42.805,6.029,13.3006,4.60044,2470.637,2022-7-22T05:28:15Z
2022-07-22T03:29:31Z,42.805,6.029,13.3004,4.60039,2470.633,2022-7-22T05:31:18Z
2022-07-22T03:32:34Z,42.805,6.029,13.3004,4.60039,2470.637,2022-7-22T05:34:21Z
2022-07-22T03:35:37Z,42.805,6.029,13.3004,4.60039,2470.637,2022-7-22T05:37:24Z
2022-07-22T03:38:40Z,42.805,6.029,13.3010,4.60040,2470.624,2022-7-22T05:40:27Z
2022-07-22T03:41:43Z,42.805,6.029,13.3003,4.60039,2470.624,2022-7-22T05:43:30Z
2022-07-22T03:44:47Z,42.805,6.029,13.3004,4.60038,2470.646,2022-7-22T05:46:33Z
2022-07-22T03:47:50Z,42.805,6.029,13.3008,4.60039,2470.624,2022-7-22T05:49:37Z
2022-07-22T03:50:53Z,42.805,6.029,13.3004,4.60041,2470.624,2022-7-22T05:52:40Z
2022-07-22T03:53:56Z,42.805,6.029,13.3004,4.60040,2470.646,2022-7-22T05:55:43Z
2022-07-22T03:56:59Z,42.805,6.029,13.3007,4.60039,2470.624,2022-7-22T05:58:46Z
2022-07-22T04:00:02Z,42.805,6.029,13.3008,4.60042,2470.624,2022-7-22T06:01:49Z
2022-07-22T04:03:05Z,42.805,6.029,13.3007,4.60039,2470.67,2022-7-22T06:04:52Z
2022-07-22T04:06:08Z,42.805,6.029,13.3009,4.60038,2470.646,2022-7-22T06:07:55Z
2022-07-22T04:09:11Z,42.805,6.029,13.3006,4.60040,2470.624,2022-7-22T06:10:58Z
2022-07-22T04:12:15Z,42.805,6.029,13.3001,4.60039,2470.646,2022-7-22T06:14:02Z
2022-07-22T04:15:18Z,42.805,6.029,13.3006,4.60038,2470.624,2022-7-22T06:17:05Z
2022-07-22T04:18:21Z,42.805,6.029,13.3005,4.60040,2470.624,2022-7-22T06:20:08Z
2022-07-22T04:21:24Z,42.805,6.029,13.3005,4.60038,2470.6,2022-7-22T06:23:11Z
2022-07-22T04:24:27Z,42.805,6.029,13.3004,4.60040,2470.624,2022-7-22T06:26:14Z
2022-07-22T04:27:30Z,42.805,6.029,13.3005,4.60039,2470.637,2022-7-22T06:29:17Z
2022-07-22T04:30:33Z,42.805,6.029,13.3006,4.60039,2470.6,2022-7-22T06:32:20Z
2022-07-22T04:33:36Z,42.805,6.029,13.3005,4.60040,2470.624,2022-7-22T06:35:23Z
2022-07-22T04:36:40Z,42.805,6.029,13.3007,4.60040,2470.614,2022-7-22T06:38:27Z
2022-07-22T04:39:43Z,42.805,6.029,13.3004,4.60042,2470.6,2022-7-22T06:41:30Z
2022-07-22T04:42:46Z,42.805,6.029,13.3005,4.60039,2470.6,2022-7-22T06:44:33Z
2022-07-22T04:45:49Z,42.805,6.029,13.3005,4.60042,2470.624,2022-7-22T06:47:36Z
2022-07-22T04:48:52Z,42.805,6.029,13.3007,4.60040,2470.637,2022-7-22T06:50:39Z
2022-07-22T04:51:55Z,42.805,6.029,13.3004,4.60041,2470.646,2022-7-22T06:53:42Z
2022-07-22T04:54:58Z,42.805,6.029,13.3003,4.60041,2470.637,2022-7-22T06:56:45Z
2022-07-22T04:58:01Z,42.805,6.029,13.3003,4.60038,2470.646,2022-7-22T06:59:48Z
2022-07-22T05:01:05Z,42.805,6.029,13.3005,4.60039,2470.6,2022-7-22T07:02:52Z
2022-07-22T05:04:08Z,42.805,6.029,13.3004,4.60037,2470.637,2022-7-22T07:05:55Z
2022-07-22T05:07:11Z,42.805,6.029,13.3006,4.60042,2470.6,2022-7-22T07:08:58Z
2022-07-22T05:10:14Z,42.805,6.029,13.3006,4.60039,2470.6,2022-7-22T07:12:01Z
2022-07-22T05:13:17Z,42.805,6.029,13.3006,4.60039,2470.624,2022-7-22T07:15:04Z
2022-07-22T05:16:20Z,42.805,6.029,13.3005,4.60039,2470.6,2022-7-22T07:18:07Z
2022-07-22T05:19:23Z,42.805,6.029,13.3004,4.60039,2470.624,2022-7-22T07:21:10Z
2022-07-22T05:22:26Z,42.805,6.029,13.3002,4.60039,2470.614,2022-7-22T07:24:13Z
2022-07-22T05:25:30Z,42.805,6.029,13.3006,4.60039,2470.614,2022-7-22T07:27:16Z
2022-07-22T05:28:33Z,42.805,6.029,13.3010,4.60039,2470.6,2022-7-22T07:30:20Z
2022-07-22T05:31:36Z,42.805,6.029,13.3008,4.60037,2470.6,2022-7-22T07:33:23Z
2022-07-22T05:34:39Z,42.805,6.029,13.3003,4.60037,2470.637,2022-7-22T07:36:26Z
2022-07-22T05:37:42Z,42.805,6.029,13.3000,4.60039,2470.6,2022-7-22T07:39:29Z
2022-07-22T05:40:45Z,42.805,6.029,13.3004,4.60039,2470.6,2022-7-22T07:42:32Z
2022-07-22T05:43:48Z,42.805,6.029,13.3001,4.60038,2470.6,2022-7-22T07:45:35Z
2022-07-22T05:46:51Z,42.805,6.029,13.3003,4.60039,2470.577,2022-7-22T07:48:38Z
2022-07-22T05:49:54Z,42.805,6.029,13.3005,4.60040,2470.614,2022-7-22T07:51:41Z
2022-07-22T05:52:58Z,42.805,6.029,13.3005,4.60040,2470.591,2022-7-22T07:54:45Z
2022-07-22T05:56:01Z,42.805,6.029,13.3003,4.60038,2470.6,2022-7-22T07:57:48Z
2022-07-22T05:59:04Z,42.805,6.029,13.3006,4.60038,2470.614,2022-7-22T08:00:51Z
2022-07-22T06:02:07Z,42.805,6.029,13.3005,4.60039,2470.6,2022-7-22T08:03:54Z
2022-07-22T06:05:10Z,42.805,6.029,13.3008,4.60037,2470.577,2022-7-22T08:06:57Z
2022-07-22T06:08:13Z,42.805,6.029,13.3004,4.60037,2470.553,2022-7-22T08:10:00Z
2022-07-22T06:11:16Z,42.805,6.029,13.3007,4.60038,2470.577,2022-7-22T08:13:03Z
2022-07-22T06:14:19Z,42.805,6.029,13.3006,4.60038,2470.6,2022-7-22T08:16:06Z
2022-07-22T06:17:23Z,42.805,6.029,13.3005,4.60042,2470.591,2022-7-22T08:19:10Z
2022-07-22T06:20:26Z,42.805,6.029,13.3007,4.60039,2470.591,2022-7-22T08:22:13Z
2022-07-22T06:23:29Z,42.805,6.029,13.3006,4.60037,2470.577,2022-7-22T08:25:16Z
2022-07-22T06:26:32Z,42.805,6.029,13.3004,4.60039,2470.591,2022-7-22T08:28:19Z
2022-07-22T06:29:35Z,42.805,6.029,13.3005,4.60039,2470.577,2022-7-22T08:31:22Z
2022-07-22T06:32:38Z,42.805,6.029,13.3006,4.60039,2470.553,2022-7-22T08:34:25Z
2022-07-22T06:35:41Z,42.805,6.029,13.3007,4.60037,2470.591,2022-7-22T08:37:28Z
2022-07-22T06:38:44Z,42.805,6.029,13.3004,4.60037,2470.577,2022-7-22T08:40:31Z
2022-07-22T06:41:48Z,42.805,6.029,13.3004,4.60038,2470.553,2022-7-22T08:43:35Z
2022-07-22T06:44:51Z,42.805,6.029,13.3005,4.60037,2470.577,2022-7-22T08:46:38Z
2022-07-22T06:47:54Z,42.805,6.029,13.3005,4.60037,2470.577,2022-7-22T08:49:41Z
2022-07-22T06:50:57Z,42.805,6.029,13.3003,4.60039,2470.577,2022-7-22T08:52:44Z
2022-07-22T06:54:00Z,42.805,6.029,13.3003,4.60037,2470.577,2022-7-22T08:55:47Z
2022-07-22T06:57:03Z,42.805,6.029,13.3005,4.60039,2470.567,2022-7-22T08:58:50Z
2022-07-22T07:00:06Z,42.805,6.029,13.3002,4.60040,2470.553,2022-7-22T09:01:53Z
2022-07-22T07:03:09Z,42.805,6.029,13.3004,4.60039,2470.577,2022-7-22T09:04:56Z
2022-07-22T07:06:13Z,42.805,6.029,13.3005,4.60039,2470.577,2022-7-22T09:08:00Z
2022-07-22T07:09:16Z,42.805,6.029,13.3007,4.60039,2470.577,2022-7-22T09:11:03Z
2022-07-22T07:12:19Z,42.805,6.029,13.3007,4.60039,2470.53,2022-7-22T09:14:06Z
2022-07-22T07:15:22Z,42.805,6.029,13.3004,4.60040,2470.553,2022-7-22T09:17:09Z
2022-07-22T07:18:25Z,42.805,6.029,13.3002,4.60038,2470.553,2022-7-22T09:20:12Z
2022-07-22T07:21:28Z,42.805,6.029,13.3005,4.60038,2470.544,2022-7-22T09:23:15Z
2022-07-22T07:24:31Z,42.805,6.029,13.3005,4.60039,2470.553,2022-7-22T09:26:18Z
2022-07-22T07:27:34Z,42.805,6.029,13.3003,4.60038,2470.553,2022-7-22T09:29:21Z
2022-07-22T07:30:37Z,42.805,6.029,13.3004,4.60039,2470.567,2022-7-22T09:32:24Z
2022-07-22T07:33:41Z,42.805,6.029,13.3004,4.60038,2470.553,2022-7-22T09:35:28Z
2022-07-22T07:36:44Z,42.805,6.029,13.3000,4.60037,2470.553,2022-7-22T09:38:31Z
2022-07-22T07:39:47Z,42.805,6.029,13.3006,4.60037,2470.577,2022-7-22T09:41:34Z
2022-07-22T07:42:50Z,42.805,6.029,13.3001,4.60039,2470.516,2022-7-22T09:44:37Z
2022-07-22T07:45:53Z,42.805,6.029,13.3006,4.60037,2470.53,2022-7-22T09:47:40Z
2022-07-22T07:48:56Z,42.805,6.029,13.3002,4.60038,2470.553,2022-7-22T09:50:43Z
2022-07-22T07:51:59Z,42.805,6.029,13.3005,4.60039,2470.53,2022-7-22T09:53:46Z
2022-07-22T07:55:02Z,42.805,6.029,13.3008,4.60039,2470.567,2022-7-22T09:56:49Z
2022-07-22T07:58:06Z,42.805,6.029,13.3000,4.60038,2470.507,2022-7-22T09:59:53Z
2022-07-22T08:01:09Z,42.805,6.029,13.3004,4.60041,2470.553,2022-7-22T10:02:56Z
2022-07-22T08:04:12Z,42.805,6.029,13.3008,4.60041,2470.553,2022-7-22T10:05:59Z
2022-07-22T08:07:15Z,42.805,6.029,13.3002,4.60039,2470.544,2022-7-22T10:09:02Z
2022-07-22T08:10:18Z,42.805,6.029,13.3004,4.60038,2470.577,2022-7-22T10:12:05Z
2022-07-22T08:13:21Z,42.805,6.029,13.3005,4.60038,2470.53,2022-7-22T10:15:08Z
2022-07-22T08:16:24Z,42.805,6.029,13.3004,4.60039,2470.53,2022-7-22T10:18:11Z
2022-07-22T08:19:27Z,42.805,6.029,13.3007,4.60039,2470.553,2022-7-22T10:21:14Z
2022-07-22T08:22:31Z,42.805,6.029,13.3006,4.60038,2470.553,2022-7-22T10:24:18Z
2022-07-22T08:25:34Z,42.805,6.029,13.3006,4.60038,2470.591,2022-7-22T10:27:21Z
2022-07-22T08:28:37Z,42.805,6.029,13.3006,4.60038,2470.553,2022-7-22T10:30:24Z
2022-07-22T08:31:40Z,42.805,6.029,13.3007,4.60042,2470.553,2022-7-22T10:33:27Z
2022-07-22T08:34:43Z,42.805,6.029,13.3006,4.60039,2470.567,2022-7-22T10:36:30Z
2022-07-22T08:37:46Z,42.805,6.029,13.3006,4.60039,2470.544,2022-7-22T10:39:33Z
2022-07-22T08:40:49Z,42.805,6.029,13.3004,4.60038,2470.591,2022-7-22T10:42:36Z
2022-07-22T08:43:53Z,42.805,6.029,13.3006,4.60038,2470.567,2022-7-22T10:45:39Z
2022-07-22T08:46:56Z,42.805,6.029,13.3003,4.60040,2470.577,2022-7-22T10:48:43Z
2022-07-22T08:49:59Z,42.805,6.029,13.3006,4.60037,2470.567,2022-7-22T10:51:46Z
2022-07-22T08:53:02Z,42.805,6.029,13.3005,4.60039,2470.539,2022-7-22T10:54:49Z
2022-07-22T08:56:05Z,42.805,6.029,13.3004,4.60037,2470.516,2022-7-22T10:57:52Z
2022-07-22T08:59:08Z,42.805,6.029,13.3003,4.60037,2470.53,2022-7-22T11:00:55Z
2022-07-22T09:02:11Z,42.805,6.029,13.3006,4.60038,2470.507,2022-7-22T11:03:58Z
2022-07-22T09:05:14Z,42.805,6.029,13.3005,4.60037,2470.53,2022-7-22T11:07:01Z
2022-07-22T09:08:17Z,42.805,6.029,13.3004,4.60039,2470.577,2022-7-22T11:10:04Z
2022-07-22T09:11:21Z,42.805,6.029,13.3005,4.60039,2470.53,2022-7-22T11:13:08Z
2022-07-22T09:14:24Z,42.805,6.029,13.3003,4.60040,2470.507,2022-7-22T11:16:11Z
2022-07-22T09:17:27Z,42.805,6.029,13.3004,4.60039,2470.53,2022-7-22T11:19:14Z
2022-07-22T09:20:30Z,42.805,6.029,13.3004,4.60039,2470.553,2022-7-22T11:22:17Z
2022-07-22T09:23:33Z,42.805,6.029,13.3004,4.60040,2470.567,2022-7-22T11:25:20Z
2022-07-22T09:26:36Z,42.805,6.029,13.3006,4.60039,2470.507,2022-7-22T11:28:23Z
2022-07-22T09:29:39Z,42.805,6.029,13.3005,4.60040,2470.53,2022-7-22T11:31:26Z
2022-07-22T09:32:43Z,42.805,6.029,13.3005,4.60039,2470.53,2022-7-22T11:34:29Z
2022-07-22T09:35:46Z,42.805,6.029,13.3001,4.60039,2470.544,2022-7-22T11:37:33Z
2022-07-22T09:38:49Z,42.805,6.029,13.3006,4.60041,2470.567,2022-7-22T11:40:36Z
2022-07-22T09:41:52Z,42.805,6.029,13.3006,4.60039,2470.544,2022-7-22T11:43:39Z
2022-07-22T09:44:55Z,42.805,6.029,13.3007,4.60039,2470.577,2022-7-22T11:46:42Z
2022-07-22T09:47:58Z,42.805,6.029,13.3005,4.60041,2470.544,2022-7-22T11:49:45Z
2022-07-22T09:51:01Z,42.805,6.029,13.3006,4.60039,2470.53,2022-7-22T11:52:48Z
2022-07-22T09:54:04Z,42.805,6.029,13.3006,4.60039,2470.553,2022-7-22T11:55:51Z
2022-07-22T09:57:08Z,42.805,6.029,13.3004,4.60041,2470.507,2022-7-22T11:58:55Z
2022-07-22T10:00:11Z,42.805,6.029,13.3008,4.60039,2470.53,2022-7-22T12:01:58Z
2022-07-22T10:03:14Z,42.805,6.029,13.3005,4.60039,2470.507,2022-7-22T12:05:01Z
2022-07-22T10:06:17Z,42.805,6.029,13.3004,4.60038,2470.53,2022-7-22T12:08:04Z
2022-07-22T10:09:20Z,42.805,6.029,13.3007,4.60039,2470.52,2022-7-22T12:11:07Z
2022-07-22T10:12:23Z,42.805,6.029,13.3011,4.60040,2470.567,2022-7-22T12:14:10Z
2022-07-22T10:15:26Z,42.805,6.029,13.3004,4.60039,2470.53,2022-7-22T12:17:13Z
2022-07-22T10:18:29Z,42.805,6.029,13.3002,4.60039,2470.544,2022-7-22T12:20:16Z
2022-07-22T10:21:33Z,42.805,6.029,13.3006,4.60039,2470.577,2022-7-22T12:23:20Z
2022-07-22T10:24:36Z,42.805,6.029,13.3003,4.60040,2470.577,2022-7-22T12:26:23Z
2022-07-22T10:27:39Z,42.805,6.029,13.3005,4.60039,2470.591,2022-7-22T12:29:26Z
2022-07-22T10:30:42Z,42.805,6.029,13.3004,4.60040,2470.577,2022-7-22T12:32:29Z
2022-07-22T10:33:45Z,42.805,6.029,13.3004,4.60039,2470.6,2022-7-22T12:35:32Z
2022-07-22T10:36:48Z,42.805,6.029,13.3006,4.60039,2470.544,2022-7-22T12:38:35Z
2022-07-22T10:39:51Z,42.805,6.029,13.3004,4.60039,2470.544,2022-7-22T12:41:38Z
2022-07-22T10:42:54Z,42.805,6.029,13.3007,4.60039,2470.577,2022-7-22T12:44:41Z
2022-07-22T10:45:58Z,42.805,6.029,13.3006,4.60039,2470.577,2022-7-22T12:47:45Z
2022-07-22T10:49:01Z,42.805,6.029,13.3004,4.60039,2470.591,2022-7-22T12:50:48Z
2022-07-22T10:52:04Z,42.805,6.029,13.3006,4.60038,2470.577,2022-7-22T12:53:51Z
2022-07-22T10:55:07Z,42.805,6.029,13.3005,4.60039,2470.577,2022-7-22T12:56:54Z
2022-07-22T10:58:10Z,42.805,6.029,13.3006,4.60039,2470.567,2022-7-22T12:59:57Z
2022-07-22T11:01:13Z,42.805,6.029,13.3004,4.60040,2470.577,2022-7-22T13:03:00Z
2022-07-22T11:04:16Z,42.805,6.029,13.3009,4.60039,2470.563,2022-7-22T13:06:03Z
2022-07-22T11:07:19Z,42.805,6.029,13.3004,4.60039,2470.53,2022-7-22T13:09:06Z
2022-07-22T11:10:23Z,42.805,6.029,13.3006,4.60038,2470.553,2022-7-22T13:12:10Z
2022-07-22T11:13:26Z,42.805,6.029,13.3008,4.60039,2470.624,2022-7-22T13:15:13Z
2022-07-22T11:16:29Z,42.805,6.029,13.3006,4.60039,2470.577,2022-7-22T13:18:16Z
2022-07-22T11:19:32Z,42.805,6.029,13.3004,4.60038,2470.577,2022-7-22T13:21:19Z
2022-07-22T11:22:35Z,42.805,6.029,13.3004,4.60039,2470.553,2022-7-22T13:24:22Z
2022-07-22T11:25:38Z,42.805,6.029,13.3004,4.60039,2470.6,2022-7-22T13:27:25Z
2022-07-22T11:28:41Z,42.805,6.029,13.3009,4.60038,2470.6,2022-7-22T13:30:28Z
2022-07-22T11:31:44Z,42.805,6.029,13.3004,4.60039,2470.591,2022-7-22T13:33:31Z
2022-07-22T11:34:48Z,42.805,6.029,13.3006,4.60039,2470.591,2022-7-22T13:36:35Z
2022-07-22T11:37:51Z,42.805,6.029,13.3005,4.60039,2470.577,2022-7-22T13:39:38Z
2022-07-22T11:40:54Z,42.805,6.029,13.3004,4.60038,2470.6,2022-7-22T13:42:41Z
2022-07-22T11:43:57Z,42.805,6.029,13.3004,4.60039,2470.553,2022-7-22T13:45:44Z
2022-07-22T11:47:00Z,42.805,6.029,13.3008,4.60038,2470.591,2022-7-22T13:48:47Z
2022-07-22T11:50:03Z,42.805,6.029,13.3004,4.60038,2470.577,2022-7-22T13:51:50Z
2022-07-22T11:53:06Z,42.805,6.029,13.3006,4.60039,2470.591,2022-7-22T13:54:53Z
2022-07-22T11:56:09Z,42.805,6.029,13.3008,4.60039,2470.577,2022-7-22T13:57:56Z
2022-07-22T11:59:13Z,42.805,6.029,13.3005,4.60039,2470.6,2022-7-22T14:01:00Z
2022-07-22T12:02:16Z,42.805,6.029,13.3002,4.60039,2470.6,2022-7-22T14:04:03Z
2022-07-22T12:05:19Z,42.805,6.029,13.3006,4.60039,2470.6,2022-7-22T14:07:06Z
2022-07-22T12:08:22Z,42.805,6.029,13.3003,4.60041,2470.567,2022-7-22T14:10:09Z
2022-07-22T12:11:25Z,42.805,6.029,13.3004,4.60037,2470.577,2022-7-22T14:13:12Z
2022-07-22T12:14:28Z,42.805,6.029,13.3001,4.60040,2470.6,2022-7-22T14:16:15Z
2022-07-22T12:17:31Z,42.805,6.029,13.3004,4.60039,2470.6,2022-7-22T14:19:18Z
2022-07-22T12:20:34Z,42.805,6.029,13.3006,4.60039,2470.6,2022-7-22T14:22:21Z
2022-07-22T12:23:38Z,42.805,6.029,13.3003,4.60040,2470.577,2022-7-22T14:25:25Z
2022-07-22T12:26:41Z,42.805,6.029,13.3004,4.60038,2470.577,2022-7-22T14:28:28Z
2022-07-22T12:29:44Z,42.805,6.029,13.3003,4.60039,2470.624,2022-7-22T14:31:31Z
2022-07-22T12:32:47Z,42.805,6.029,13.3001,4.60038,2470.577,2022-7-22T14:34:34Z
2022-07-22T12:35:50Z,42.805,6.029,13.3004,4.60039,2470.577,2022-7-22T14:37:37Z
2022-07-22T12:38:53Z,42.805,6.029,13.3004,4.60039,2470.6,2022-7-22T14:40:40Z
2022-07-22T12:41:56Z,42.805,6.029,13.3003,4.60039,2470.577,2022-7-22T14:43:43Z
2022-07-22T12:44:59Z,42.805,6.029,13.3006,4.60039,2470.637,2022-7-22T14:46:46Z
2022-07-22T12:48:03Z,42.805,6.029,13.3005,4.60038,2470.637,2022-7-22T14:49:50Z
2022-07-22T12:51:06Z,42.805,6.029,13.3007,4.60038,2470.586,2022-7-22T14:52:53Z
2022-07-22T12:54:09Z,42.805,6.029,13.3004,4.60039,2470.6,2022-7-22T14:55:56Z
2022-07-22T12:57:12Z,42.805,6.029,13.3006,4.60038,2470.577,2022-7-22T14:58:59Z
2022-07-22T13:00:15Z,42.805,6.029,13.3006,4.60039,2470.577,2022-7-22T15:02:02Z
2022-07-22T13:03:18Z,42.805,6.029,13.3000,4.60039,2470.6,2022-7-22T15:05:05Z
2022-07-22T13:06:21Z,42.805,6.029,13.3008,4.60037,2470.624,2022-7-22T15:08:08Z
2022-07-22T13:09:24Z,42.805,6.029,13.3010,4.60038,2470.614,2022-7-22T15:11:11Z
2022-07-22T13:12:28Z,42.805,6.029,13.3007,4.60040,2470.661,2022-7-22T15:14:15Z
2022-07-22T13:15:31Z,42.805,6.029,13.3005,4.60038,2470.661,2022-7-22T15:17:18Z
2022-07-22T13:18:34Z,42.805,6.029,13.3002,4.60039,2470.624,2022-7-22T15:20:21Z
2022-07-22T13:21:37Z,42.805,6.029,13.3006,4.60040,2470.614,2022-7-22T15:23:24Z
2022-07-22T13:24:40Z,42.805,6.029,13.3002,4.60038,2470.624,2022-7-22T15:26:27Z
2022-07-22T13:27:43Z,42.805,6.029,13.3005,4.60038,2470.637,2022-7-22T15:29:30Z
2022-07-22T13:30:46Z,42.805,6.029,13.3009,4.60039,2470.637,2022-7-22T15:32:33Z
2022-07-22T13:33:49Z,42.805,6.029,13.3007,4.60039,2470.646,2022-7-22T15:35:36Z
2022-07-22T13:36:53Z,42.805,6.029,13.3002,4.60038,2470.646,2022-7-22T15:38:40Z
2022-07-22T13:39:56Z,42.805,6.029,13.3006,4.60038,2470.646,2022-7-22T15:41:43Z
2022-07-22T13:42:59Z,42.805,6.029,13.3005,4.60038,2470.646,2022-7-22T15:44:46Z
2022-07-22T13:46:02Z,42.805,6.029,13.3006,4.60038,2470.614,2022-7-22T15:47:49Z
2022-07-22T13:49:05Z,42.805,6.029,13.3003,4.60037,2470.67,2022-7-22T15:50:52Z
2022-07-22T13:52:08Z,42.805,6.029,13.3006,4.60036,2470.661,2022-7-22T15:53:55Z
2022-07-22T13:55:11Z,42.805,6.029,13.3002,4.60038,2470.684,2022-7-22T15:56:58Z
2022-07-22T13:58:14Z,42.805,6.029,13.3006,4.60039,2470.6,2022-7-22T16:00:01Z
2022-07-22T14:01:18Z,42.805,6.029,13.3006,4.60037,2470.624,2022-7-22T16:03:05Z
2022-07-22T14:04:21Z,42.805,6.029,13.3005,4.60039,2470.624,2022-7-22T16:06:08Z
2022-07-22T14:07:24Z,42.805,6.029,13.3004,4.60040,2470.614,2022-7-22T16:09:11Z
2022-07-22T14:10:27Z,42.805,6.029,13.3001,4.60039,2470.624,2022-7-22T16:12:14Z
2022-07-22T14:13:30Z,42.805,6.029,13.3004,4.60037,2470.637,2022-7-22T16:15:17Z
2022-07-22T14:16:33Z,42.805,6.029,13.3005,4.60039,2470.6,2022-7-22T16:18:20Z
2022-07-22T14:19:36Z,42.805,6.029,13.3006,4.60038,2470.646,2022-7-22T16:21:23Z
2022-07-22T14:22:39Z,42.805,6.029,13.3006,4.60037,2470.637,2022-7-22T16:24:26Z
2022-07-22T14:25:43Z,42.805,6.029,13.3006,4.60036,2470.637,2022-7-22T16:27:30Z
2022-07-22T14:28:46Z,42.805,6.029,13.3007,4.60037,2470.646,2022-7-22T16:30:33Z
2022-07-22T14:31:49Z,42.805,6.029,13.3007,4.60038,2470.661,2022-7-22T16:33:36Z
2022-07-22T14:34:52Z,42.805,6.029,13.3001,4.60037,2470.624,2022-7-22T16:36:39Z
2022-07-22T14:37:55Z,42.805,6.029,13.2999,4.60037,2470.646,2022-7-22T16:39:42Z
2022-07-22T14:40:58Z,42.805,6.029,13.3007,4.60038,2470.637,2022-7-22T16:42:45Z
2022-07-22T14:44:01Z,42.805,6.029,13.3009,4.60038,2470.646,2022-7-22T16:45:48Z
2022-07-22T14:47:05Z,42.805,6.029,13.3006,4.60039,2470.646,2022-7-22T16:48:52Z
2022-07-22T14:50:08Z,42.805,6.029,13.3005,4.60038,2470.614,2022-7-22T16:51:55Z
2022-07-22T14:53:11Z,42.805,6.029,13.3006,4.60038,2470.614,2022-7-22T16:54:58Z
2022-07-22T14:56:14Z,42.805,6.029,13.3001,4.60037,2470.646,2022-7-22T16:58:01Z
2022-07-22T14:59:17Z,42.805,6.029,13.3004,4.60038,2470.637,2022-7-22T17:01:04Z
2022-07-22T15:02:20Z,42.805,6.029,13.3006,4.60038,2470.646,2022-7-22T17:04:07Z
2022-07-22T15:05:23Z,42.805,6.029,13.3000,4.60038,2470.624,2022-7-22T17:07:10Z
2022-07-22T15:08:26Z,42.805,6.029,13.3002,4.60037,2470.637,2022-7-22T17:10:13Z
2022-07-22T15:11:30Z,42.805,6.029,13.3008,4.60037,2470.624,2022-7-22T17:13:17Z
2022-07-22T15:14:33Z,42.805,6.029,13.2999,4.60037,2470.646,2022-7-22T17:16:20Z